Weather in Shipunovo

Russia / Omsk Oblast     56°15′12″N   71°32′22″E
temp.,
°C
wind,
m/s
gust,
m/s
humid.,
%
clouds,
%
prec.,
mm/h
press.,
hPa
HPBL,
m
17 april, sat
sat1700:000ne48815 0.0 1027446
03:00−1ne36815 0.0 1027457
06:00−2nne23725 0.0 1028363
09:00−1se11535 0.0 1028486
12:00+3sw34415 0.0 1026935
15:00+6wsw57435 0.0 10241534
18:00+7wsw5952100 0.0 10211687
21:00+4sw41067100 0.0 1019198
18 april, sun
sun1800:00+4wsw5146876 0.0 1017331
03:00+3wsw51175100 0.0 1014252
06:00+3sw51178100 0.0 1012252
09:00+5wsw61372100 0.0 1009679
12:00+6w91470100 0.1 10081610
15:00−1nnw111366100 0.4 10141346
18:00−2n91257100 0.4 10191622
21:00−5n811565 0.0 10241375
19 april, mon
mon1900:00−7n710555 0.0 10261224
03:00−8n79495 0.0 10291106
06:00−9n684972 0.0 10311152
09:00−8n7842100 0.0 10321441
12:00−5n6734100 0.0 10321899
15:00−3n6830100 0.0 10322258
18:00−2n6732100 0.0 10322099
21:00−4nne36445 0.0 1033297
20 april, tue
tue2000:00−5n24505 0.0 1034271
03:00−5nw23535 0.0 103492
06:00−6nw24565 0.0 1034120
09:00−3wnw46405 0.0 10331156
12:000wnw563053 0.0 10321541
15:00+2wnw6833100 0.0 10291649
18:00+3w6114798 0.0 10271575
21:00+1wsw4976100 0.0 1026190
21 april, wed
wed2100:00+1w5127097 0.0 1024270
03:00+1wnw51177100 0.0 1023275
06:00+1wnw61383100 0.0 1023346
09:00+3nw7127894 0.0 1024938
12:00+4nnw81172100 0.1 10251216
15:00+5n6962100 0.1 10281557
18:00+5n576171 0.1 10311480
21:00+1n36745 0.0 1033116